Location: Rounton
(54.4000°N, 1.3500°W)
Time: 08:10:52
(UTC+00:00)

Tiros 1 despin weight - Pass Details

Date: 30 November 2021
Orbit: 592 x 641 km, 48.2° (Epoch: 19 January)

Event Time Altitude Azimuth Distance (km) Brightness Sun altitude
Rises 15:57:51 0° 236° (SW) 2,821 ? -2.2°
Reaches altitude 10° 16:00:19 10° 226° (SW) 1,919 ? -2.5°
Maximum altitude 16:04:10 30° 164° (SSE) 1,064 ? -3.0°
Drops below altitude 10° 16:08:02 10° 103° (ESE) 1,927 ? -3.4°
Sets 16:10:31 0° 93° (E) 2,835 ? -3.7°
